Retour au catalogue

HULIANWANG DIGUI-166

ActifCommunicationsPO
NORAD 68658·PAYLOAD·🇨🇳 China

Lancé Apr 8, 2026 depuis Taiyuan Satellite Launch Center

Loading…

Prochains Passages (prochaines 24 heures)

TLE

FraisSource: Space-Track

Époque: Sep 14, 2026, 13:27 UTC

1 68658U 26076C   26257.56083683  .00000026  00000-0  26669-4 0  9996
2 68658  86.4989  13.6269 0001289 108.3555 251.7719 13.24408408 21204

Suivez HULIANWANG DIGUI-166 en temps réel avec AllMySat

Download on the App Store